Location: Clegg Observatory
(38.9178°N, 78.6069°W)
Time: 21:57:50
(UTC-05:00)

Daily predictions for brighter satellites

Satellite Brightness Start Highest point End
(mag) Time Altitude Azimuth Time Altitude Azimuth Time Altitude Azimuth
Cosmos 372 Rocket 3.9 17:46:40 10° NNW 17:51:45 66° ENE 17:56:49 10° SSE
IDEFIX/ARIANE 42P 2.9 17:46:37 10° S 17:51:49 75° WSW 17:57:04 10° NNW
Cosmos 540 Rocket 3.7 17:48:20 10° SSW 17:53:30 78° WNW 17:58:41 10° NNE
Aureole 2 Rocket 2.7 17:49:59 10° SSW 17:53:42 82° ESE 17:57:46 10° NNE
CORIOLIS 4.2 17:51:42 10° SSE 17:57:03 89° WSW 18:02:27 10° NNW
Cosmos 1515 Rocket 4.4 17:54:52 10° NNW 17:59:15 58° W 18:03:35 10° S
USA 215 4.1 17:55:00 10° E 18:00:33 31° NNE 18:06:06 10° NNW
Cosmos 2058 2.8 17:56:43 10° S 18:00:47 67° E 18:04:51 10° NNE
Cosmos 1980 4.3 17:56:04 10° SW 18:01:39 59° WNW 18:07:16 10° NNE
Cosmos 1805 Rocket 4.0 18:00:15 10° SSE 18:04:27 43° E 18:08:40 10° NNE
Cosmos 1461 2.8 18:02:58 10° SSW 18:07:10 80° ESE 18:11:16 10° NNE
SKYMED 2 3.7 18:04:00 10° NNE 18:08:17 57° E 18:12:32 10° S
Meteor 1-11 4.3 18:07:32 10° S 18:13:14 90° E 18:19:02 10° N
Cosmos 1626 2.6 18:10:07 10° SSE 18:13:35 37° E 18:17:05 10° NNE
Aureole 1 Rocket 4.4 18:10:51 10° SSE 18:15:41 36° E 18:21:52 10° NNE
Sich 1 3.6 18:13:25 10° SSE 18:17:31 38° E 18:21:37 10° NNE
Cosmos 2219 Rocket 4.0 18:13:58 10° WSW 18:18:48 28° WNW 18:23:37 10° N
CZ-2C R/B 4.1 18:14:54 10° SSW 18:19:30 38° W 18:24:00 10° NNW
Cosmos 1356 Rocket 3.5 18:17:00 10° S 18:20:50 47° E 18:24:41 10° NNE
Lacrosse 5 rocket 2.1 18:17:22 10° NW 18:21:05 53° SW 18:25:00 10° SSE
ALOS 3.5 18:20:39 10° ESE 18:23:58 20° ENE 18:27:18 10° NNE
Cosmos 2333 Rocket 3.8 18:20:34 10° WSW 18:25:34 32° WNW 18:30:37 10° N
Cosmos 1603 4.5 18:21:26 10° SSE 18:26:13 30° ESE 18:30:06 14° NE
Cosmos 1633 Rocket 3.4 18:23:40 10° SSE 18:27:50 43° E 18:32:00 10° NNE
Cosmos 1726 4.1 18:25:38 10° NNW 18:29:03 33° W 18:32:28 10° SSW
Coronas F rocket 2.0 18:31:50 10° SSE 18:33:36 28° ESE 18:33:36 28° ESE
Cosmos 2278 Rocket 3.6 18:29:03 10° NW 18:34:21 42° WSW 18:39:38 10° S
Cosmos 1455 2.3 18:33:04 10° N 18:36:47 51° E 18:40:31 10° SSE
FAST Rocket 3.7 18:35:43 10° S 18:38:18 77° E 18:41:10 10° N
USA 229 DEB 3.7 18:34:32 10° SSW 18:41:15 62° ESE 18:47:09 14° NE
USA 229 3.7 18:34:38 10° SSW 18:41:21 62° ESE 18:47:12 15° NE
Cosmos 1703 3.8 18:40:35 10° SSW 18:44:25 59° W 18:48:17 10° N
Cosmos 1184 Rocket 2.7 18:42:33 10° S 18:45:52 78° E 18:48:43 14° NNE
SJ-6B 2.9 18:44:18 10° SSE 18:48:17 57° ENE 18:52:21 10° N
Spot 2 Rocket 4.1 18:44:31 10° SE 18:48:59 33° ENE 18:53:27 10° N
Iridium 4 Rocket 3.2 18:48:21 10° SSE 18:52:40 49° E 18:56:46 10° NNE
Cosmos 1707 Rocket 3.8 18:50:26 10° NNW 18:54:45 69° W 18:59:03 10° S
COSMO-SKYMED 1 3.9 18:52:11 10° N 18:56:15 40° WNW 19:00:18 10° SW
SL-19 R/B 4.4 18:50:45 10° SE 18:56:23 51° ENE 19:01:48 10° N
Cosmos 2237 Rocket 4.3 18:52:43 10° WSW 18:57:10 24° NW 19:01:39 10° N
Cosmos 2369 Rocket 3.4 18:57:33 10° N 19:01:00 23° NE 19:01:00 23° NE
Cosmos 1666 Rocket 4.2 18:59:40 10° SSW 19:03:56 57° W 19:08:16 10° N
H-2A ROCKET BODY 3.9 18:39:30 10° WSW 19:05:07 47° SSW 19:09:18 21° SE
SL-16 R/B 3.2 18:59:54 10° SW 19:05:16 45° WNW 19:10:42 10° N
FREGAT/IRIS 2.7 19:03:53 10° S 19:06:56 78° WSW 19:10:00 10° NNW
Haruka 4.5 19:04:16 10° WSW 19:08:41 49° S 19:16:07 22° ESE
Resurs 01 Rocket 1.6 19:12:15 41° SE 19:13:28 56° ENE 19:17:49 10° N
Cosmos 923 Rocket 3.9 19:08:37 10° SSW 19:13:49 84° ESE 19:16:59 24° NNE
Cosmos 1933 Rocket 3.4 19:11:03 10° S 19:15:27 67° E 19:16:31 48° NE
Cosmos 1680 Rocket 3.3 19:15:04 10° S 19:20:15 73° ESE 19:22:05 41° NNE
Cosmos 1655 Rocket 4.1 19:15:43 10° SSE 19:21:48 49° E 19:24:06 34° NE
Cosmos 1627 Rocket 4.3 19:18:02 10° S 19:24:10 68° E 19:30:15 10° NNE
CZ-4C R/B 4.4 19:19:58 10° N 19:23:28 17° NNE 19:23:28 17° NNE
Lacrosse 4 Rocket 1.3 19:20:45 10° NNW 19:24:48 79° WSW 19:25:17 67° S
FENGYUN 3A 3.5 19:24:28 10° SSE 19:29:49 86° ENE 19:35:14 10° NNW
Tiangong 1 3.2 19:27:21 10° SW 19:28:39 23° SW 19:28:39 23° SW
Cosmos 1869 4.1 19:27:08 10° NNW 19:31:05 52° W 19:35:00 10° S
NOSS 3-1 (C) 3.4 19:27:22 10° SSW 19:32:51 54° ESE 19:32:51 54° ESE
Cosmos 1470 Rocket 3.9 19:32:41 10° SSW 19:37:00 62° W 19:38:13 42° NNW
USA 215 3.1 19:40:52 47° SE 19:43:00 87° NE 19:49:35 10° NW
Cosmos 1943 3.5 19:37:28 10° S 19:41:55 51° SSE 19:41:55 51° SSE
Lacrosse 5 4.2 19:46:31 10° NNW 19:47:19 12° N 19:47:19 12° N
ATLAS 5 CENTAUR R/B 4.1 19:45:18 10° NNW 19:47:22 19° N 19:47:22 19° N
Cosmos 2026 Rocket 3.9 19:45:04 10° S 19:51:17 82° W 19:55:59 18° N
Cosmos 2112 Rocket 4.4 19:51:40 10° SSW 19:56:48 61° WNW 19:57:11 59° NW
ALOS 3.5 19:56:44 10° SSW 20:01:07 40° W 20:05:31 10° NNW
Cosmos 1943 Rocket 4.5 20:02:17 10° N 20:02:44 12° N 20:02:44 12° N
Cosmos 2369 Rocket 4.2 20:40:55 10° NW 20:42:51 21° NW 20:42:51 21° NW
